This demonstration page uses our WeatherBlox Daily Observations layout. Learn more.

Left ArrowRight Arrow

44.8408, -93.29828

Hourly Observations for May 29, 2016

Temp ( °F °C ) Dew Point ( °F °C ) Humidity (%) Winds ( mph kmh ) Pressure ( in mb ) Visibility ( mi km ) Precip ( " mm )
12:53 am 00:53 Cloudy 63 17.2 60 15.6 90 90 W 5 7 29.83 1010 8 13 0.00 0.00
1:17 am 01:17 Cloudy 63 17.2 60 15.6 90 90 W 5 7 29.83 1010 8 13 0.00 0.00
1:43 am 01:43 Cloudy 63 17.2 60 15.6 90 90 WSW 5 7 29.83 1010 7 11 0.00 0.00
1:53 am 01:53 Cloudy with Mist and Fog 63 17.2 60 15.6 90 90 WSW 5 7 29.83 1010 6 10 0.00 0.00
2:53 am 02:53 Mostly Cloudy with Mist and Fog 62 16.7 60 15.6 93 93 WSW 5 7 29.83 1010 6 10 0.00 0.00
3:53 am 03:53 Cloudy 62 16.7 59 15 90 90 W 5 7 29.83 1010 9 14 0.00 0.00
4:53 am 04:53 Cloudy 62 16.7 59 15 90 90 W 6 9 29.85 1011 10 16 0.00 0.00
5:13 am 05:13 Cloudy 62 16.7 59 15 90 90 W 8 13 29.85 1011 10 16 0.00 0.00
5:28 am 05:28 Cloudy 62 16.7 59 15 90 90 W 8 13 29.85 1011 10 16 0.00 0.00
5:37 am 05:37 Mostly Cloudy 62 16.7 59 15 90 90 W 7 11 29.85 1011 10 16 0.00 0.00
5:47 am 05:47 Mostly Cloudy 63 17 59 15 88 88 W 9 15 29.85 1011 10 16 0.00 0.00
5:53 am 05:53 Mostly Cloudy 62 16.7 59 15 90 90 W 8 13 29.86 1011 10 16 0.00 0.00
6:16 am 06:16 Mostly Cloudy 63 17 57 14 83 83 W 13 20 29.88 1012 10 16 0.00 0.00
6:53 am 06:53 Cloudy 63 17.2 58 14.4 84 84 W 12 19 29.87 1012 10 16 0.00 0.00
7:06 am 07:06 Cloudy 63 17 57 14 83 83 WNW 13 20 29.88 1012 10 16 0.00 0.00
7:53 am 07:53 Cloudy 64 17.8 58 14.4 81 81 WNW 12 19 29.89 1012 10 16 0.00 0.03
8:53 am 08:53 Cloudy 65 18.3 58 14.4 78 78 WNW 14 22 29.91 1013 10 16 0.00 0.00
9:01 am 09:01 Cloudy 65 18.3 58 14.4 78 78 WNW 10 17 29.91 1013 10 16 0.00 0.00
9:10 am 09:10 Cloudy 66 19 57 14 73 73 WNW 12 19 29.91 1013 10 16 0.00 0.00
9:45 am 09:45 Mostly Cloudy 68 20 58 14.4 70 70 W 13 20 29.94 1014 10 16 0.00 0.00
9:53 am 09:53 Mostly Cloudy 68 20 58 14.4 70 70 WNW 12 19 29.92 1013 10 16 0.00 0.00
10:00 am 10:00 Mostly Cloudy 68 20 57 14 69 69 WNW 10 17 29.94 1014 10 16 0.00 0.00
10:15 am 10:15 Mostly Cloudy 68 20 57 13.9 68 68 WNW 17 28 29.94 1014 10 16 0.00 0.00
10:53 am 10:53 Mostly Cloudy 71 21.7 59 15 66 66 WNW 13 20 29.93 1014 10 16 0.00 0.00
11:53 am 11:53 Mostly Cloudy 73 22.8 57 13.9 57 57 NW 12 19 29.94 1014 10 16 0.00 0.00
12:53 pm 12:53 Mostly Cloudy 75 23.9 57 13.9 54 54 WNW 14 22 29.95 1014 10 16 0.00 0.00
1:53 pm 13:53 Mostly Cloudy 75 23.9 56 13.3 52 52 WNW 14 22 29.95 1014 10 16 0.00 0.00
2:53 pm 14:53 Mostly Cloudy 76 24.4 57 13.9 52 52 NW 14 22 29.95 1014 10 16 0.00 0.03
3:53 pm 15:53 Partly Cloudy 78 25.6 56 13.3 47 47 WNW 15 24 29.94 1014 10 16 0.00 0.00
4:53 pm 16:53 Partly Cloudy 78 25.6 54 12.2 43 43 W 16 26 29.92 1013 10 16 0.00 0.00
5:53 pm 17:53 Partly Cloudy 78 25.6 55 12.8 45 45 WNW 10 17 29.92 1013 10 16 0.00 0.00
6:53 pm 18:53 Partly Cloudy 77 25 54 12.2 45 45 WNW 12 19 29.91 1013 10 16 0.00 0.00
7:39 pm 19:39 Partly Cloudy 74 23.3 56 13.3 54 54 NNW 10 17 29.91 1013 10 16 0.00 0.00
7:53 pm 19:53 Partly Cloudy 73 22.8 57 13.9 57 57 N 9 15 29.93 1013 10 16 0.00 0.00
8:53 pm 20:53 Mostly Clear 71 21.7 57 13.9 61 61 WNW 3 6 29.93 1014 10 16 0.00 0.00
9:53 pm 21:53 Clear 70 21.1 56 13.3 61 61 WSW 6 9 29.95 1014 10 16 0.00 0.00
10:53 pm 22:53 Clear 68 20 57 13.9 68 68 W 3 6 29.97 1015 10 16 0.00 0.00
11:53 pm 23:53 Clear 67 19.4 57 13.9 71 71 Calm 29.98 1015 10 16 0.00 0.00

Powered by AerisWeather